When you browse on this site, cookies collect data to enhance your experience and personalize the content and advertising you see.
Visit our Privacy Policy to learn more. By continuing to use the site, you agree to this use of cookies and data.
  • In Österreich
  • Länderverzeichnis
  • Für 7 Tage
  • Wassertemperatur
  • Wetterkarte
  • News
  • Widgets
  • user-avatar
    Anmelden

    Stündliche Wetter Vedaranniyam

    Heute, 30 Mai, Samstag

    Zeit Temperatur Niederschläge Wind Luftdruck Luftfeuchtigkeit
    00:00 +32°C° 0 mm 9 m/S 754 mmHg 81%
    01:00 +32°C° 0 mm 9 m/S 754 mmHg 82%
    02:00 +32°C° 0 mm 9 m/S 753 mmHg 82%
    03:00 +32°C° 0 mm 8 m/S 753 mmHg 82%
    04:00 +32°C° 0 mm 8 m/S 754 mmHg 81%
    05:00 +32°C° 0 mm 8 m/S 754 mmHg 80%
    06:00 +33°C° 0 mm 8 m/S 754 mmHg 76%
    07:00 +33°C° 0 mm 8 m/S 755 mmHg 72%
    08:00 +34°C° 0 mm 8 m/S 755 mmHg 68%
    09:00 +35°C° 0 mm 8 m/S 755 mmHg 65%
    10:00 +37°C° 0 mm 8 m/S 755 mmHg 61%
    11:00 +38°C° 0 mm 8 m/S 755 mmHg 57%
    12:00 +38°C° 0 mm 8 m/S 754 mmHg 55%
    13:00 +39°C° 0 mm 8 m/S 754 mmHg 52%
    14:00 +39°C° 0 mm 8 m/S 753 mmHg 50%
    15:00 +38°C° 0 mm 9 m/S 753 mmHg 55%
    16:00 +35°C° 0 mm 9 m/S 753 mmHg 60%
    17:00 +34°C° 0 mm 10 m/S 753 mmHg 66%
    18:00 +34°C° 0 mm 10 m/S 754 mmHg 68%
    19:00 +33°C° 0 mm 11 m/S 754 mmHg 70%
    20:00 +33°C° 0 mm 11 m/S 755 mmHg 72%
    21:00 +32°C° 0 mm 11 m/S 755 mmHg 72%
    22:00 +32°C° 0 mm 10 m/S 756 mmHg 72%
    23:00 +32°C° 0 mm 10 m/S 756 mmHg 72%

    Morgen, 31 Mai, Sonntag

    Zeit Temperatur Niederschläge Wind Luftdruck Luftfeuchtigkeit
    00:00 +32°C° 0 mm 10 m/S 756 mmHg 73%
    01:00 +32°C° 0 mm 9 m/S 755 mmHg 75%
    02:00 +32°C° 0 mm 9 m/S 755 mmHg 76%
    03:00 +32°C° 0 mm 9 m/S 755 mmHg 76%
    04:00 +32°C° 0 mm 9 m/S 755 mmHg 75%
    05:00 +32°C° 0 mm 9 m/S 755 mmHg 75%
    06:00 +32°C° 0 mm 9 m/S 756 mmHg 72%
    07:00 +33°C° 0 mm 9 m/S 756 mmHg 68%
    08:00 +34°C° 0 mm 9 m/S 757 mmHg 64%
    09:00 +35°C° 0 mm 9 m/S 756 mmHg 62%
    10:00 +37°C° 0 mm 9 m/S 756 mmHg 59%
    11:00 +37°C° 0 mm 9 m/S 756 mmHg 57%
    12:00 +37°C° 0 mm 9 m/S 755 mmHg 57%
    13:00 +37°C° 0 mm 9 m/S 755 mmHg 57%
    14:00 +37°C° 0 mm 10 m/S 754 mmHg 57%
    15:00 +36°C° 0 mm 10 m/S 754 mmHg 61%
    16:00 +36°C° 0 mm 10 m/S 753 mmHg 64%
    17:00 +34°C° 0 mm 10 m/S 753 mmHg 67%
    18:00 +33°C° 0 mm 10 m/S 754 mmHg 69%
    19:00 +33°C° 0 mm 10 m/S 755 mmHg 72%
    20:00 +32°C° 0 mm 10 m/S 755 mmHg 74%
    21:00 +32°C° 0 mm 10 m/S 755 mmHg 74%
    22:00 +32°C° 0 mm 10 m/S 756 mmHg 75%
    23:00 +32°C° 0 mm 10 m/S 756 mmHg 75%

    übermorgen, 1 Juni, Montag

    Zeit Temperatur Niederschläge Wind Luftdruck Luftfeuchtigkeit
    00:00 +32°C° 0 mm 10 m/S 755 mmHg 75%
    01:00 +32°C° 0 mm 10 m/S 755 mmHg 74%
    02:00 +32°C° 0 mm 10 m/S 754 mmHg 74%
    03:00 +32°C° 0 mm 10 m/S 755 mmHg 74%
    04:00 +32°C° 0 mm 9 m/S 755 mmHg 75%
    05:00 +32°C° 0 mm 9 m/S 755 mmHg 76%
    06:00 +33°C° 0 mm 9 m/S 755 mmHg 72%
    07:00 +34°C° 0 mm 10 m/S 756 mmHg 68%
    08:00 +34°C° 0 mm 10 m/S 756 mmHg 63%
    09:00 +36°C° 0 mm 10 m/S 756 mmHg 61%
    10:00 +37°C° 0 mm 10 m/S 756 mmHg 58%
    11:00 +38°C° 0 mm 10 m/S 756 mmHg 56%
    12:00 +38°C° 0 mm 10 m/S 756 mmHg 55%
    13:00 +38°C° 0 mm 11 m/S 755 mmHg 55%
    14:00 +38°C° 0 mm 11 m/S 754 mmHg 54%
    15:00 +37°C° 0 mm 11 m/S 754 mmHg 58%
    16:00 +36°C° 0 mm 11 m/S 754 mmHg 62%
    17:00 +34°C° 0 mm 11 m/S 754 mmHg 66%
    18:00 +33°C° 0 mm 11 m/S 754 mmHg 68%
    19:00 +33°C° 0 mm 11 m/S 755 mmHg 69%
    20:00 +32°C° 0 mm 11 m/S 755 mmHg 71%
    21:00 +32°C° 0 mm 12 m/S 756 mmHg 71%
    22:00 +32°C° 0 mm 12 m/S 756 mmHg 71%
    23:00 +32°C° 0 mm 12 m/S 756 mmHg 71%

    2 Juni, Dienstag

    Zeit Temperatur Niederschläge Wind Luftdruck Luftfeuchtigkeit
    00:00 +32°C° 0 mm 12 m/S 755 mmHg 71%
    01:00 +32°C° 0 mm 11 m/S 755 mmHg 70%
    02:00 +32°C° 0 mm 11 m/S 754 mmHg 70%
    03:00 +32°C° 0 mm 11 m/S 755 mmHg 70%
    04:00 +32°C° 0 mm 11 m/S 755 mmHg 70%
    05:00 +32°C° 0 mm 10 m/S 755 mmHg 70%
    06:00 +33°C° 0 mm 10 m/S 755 mmHg 66%
    07:00 +33°C° 0 mm 10 m/S 756 mmHg 63%
    08:00 +34°C° 0 mm 10 m/S 756 mmHg 59%
    09:00 +36°C° 0 mm 10 m/S 756 mmHg 57%
    10:00 +37°C° 0 mm 10 m/S 756 mmHg 55%
    11:00 +38°C° 0 mm 10 m/S 756 mmHg 53%
    12:00 +38°C° 0 mm 11 m/S 756 mmHg 53%
    13:00 +38°C° 0 mm 11 m/S 755 mmHg 53%
    14:00 +38°C° 0 mm 11 m/S 754 mmHg 52%
    15:00 +37°C° 0 mm 11 m/S 754 mmHg 55%
    16:00 +36°C° 0 mm 11 m/S 754 mmHg 58%
    17:00 +34°C° 0 mm 11 m/S 754 mmHg 61%
    18:00 +33°C° 0 mm 11 m/S 754 mmHg 63%
    19:00 +33°C° 0 mm 11 m/S 755 mmHg 66%
    20:00 +32°C° 0 mm 11 m/S 756 mmHg 68%
    21:00 +32°C° 0 mm 11 m/S 756 mmHg 68%
    22:00 +32°C° 0 mm 11 m/S 756 mmHg 68%
    23:00 +32°C° 0 mm 11 m/S 756 mmHg 68%

    3 Juni, Mittwoch

    Zeit Temperatur Niederschläge Wind Luftdruck Luftfeuchtigkeit
    00:00 +32°C° 0 mm 11 m/S 755 mmHg 69%
    01:00 +32°C° 0 mm 11 m/S 755 mmHg 69%
    02:00 +32°C° 0 mm 10 m/S 754 mmHg 70%
    03:00 +32°C° 0 mm 10 m/S 754 mmHg 71%
    04:00 +31°C° 0 mm 9 m/S 754 mmHg 72%
    05:00 +31°C° 0 mm 9 m/S 754 mmHg 73%
    06:00 +32°C° 0 mm 9 m/S 755 mmHg 69%
    07:00 +33°C° 0 mm 9 m/S 755 mmHg 66%
    08:00 +34°C° 0 mm 10 m/S 756 mmHg 62%
    09:00 +36°C° 0 mm 10 m/S 756 mmHg 59%
    10:00 +37°C° 0 mm 10 m/S 756 mmHg 56%
    11:00 +38°C° 0 mm 10 m/S 755 mmHg 52%
    12:00 +38°C° 0 mm 10 m/S 755 mmHg 53%
    13:00 +38°C° 0 mm 10 m/S 754 mmHg 53%
    14:00 +38°C° 0 mm 10 m/S 753 mmHg 54%
    15:00 +37°C° 0 mm 11 m/S 753 mmHg 57%
    16:00 +36°C° 0 mm 11 m/S 753 mmHg 61%
    17:00 +34°C° 0 mm 11 m/S 753 mmHg 65%
    18:00 +33°C° 0 mm 11 m/S 753 mmHg 67%
    19:00 +33°C° 0 mm 11 m/S 754 mmHg 68%
    20:00 +32°C° 0 mm 11 m/S 755 mmHg 70%
    21:00 +32°C° 0 mm 11 m/S 755 mmHg 71%
    22:00 +32°C° 0 mm 11 m/S 755 mmHg 72%
    23:00 +32°C° 0 mm 11 m/S 755 mmHg 73%

    4 Juni, Donnerstag

    Zeit Temperatur Niederschläge Wind Luftdruck Luftfeuchtigkeit
    00:00 +32°C° 0 mm 11 m/S 755 mmHg 74%
    01:00 +32°C° 0 mm 11 m/S 754 mmHg 75%
    02:00 +32°C° 0 mm 10 m/S 754 mmHg 77%
    03:00 +31°C° 0 mm 10 m/S 754 mmHg 76%
    04:00 +31°C° 0 mm 9 m/S 754 mmHg 75%
    05:00 +31°C° 0 mm 9 m/S 754 mmHg 74%
    06:00 +32°C° 0 mm 8 m/S 755 mmHg 67%
    07:00 +34°C° 0 mm 8 m/S 755 mmHg 61%
    08:00 +35°C° 0 mm 8 m/S 756 mmHg 55%
    09:00 +37°C° 0 mm 8 m/S 756 mmHg 51%
    10:00 +38°C° 0 mm 8 m/S 755 mmHg 48%
    11:00 +39°C° 0 mm 8 m/S 755 mmHg 45%
    12:00 +39°C° 0 mm 9 m/S 754 mmHg 46%
    13:00 +39°C° 0 mm 9 m/S 754 mmHg 47%
    14:00 +38°C° 0 mm 10 m/S 753 mmHg 49%
    15:00 +37°C° 0 mm 10 m/S 753 mmHg 54%
    16:00 +36°C° 0 mm 10 m/S 753 mmHg 60%
    17:00 +34°C° 0 mm 10 m/S 752 mmHg 66%
    18:00 +33°C° 0 mm 10 m/S 753 mmHg 70%
    19:00 +33°C° 0 mm 11 m/S 754 mmHg 73%
    20:00 +32°C° 0 mm 11 m/S 754 mmHg 77%
    21:00 +32°C° 0 mm 11 m/S 755 mmHg 77%
    22:00 +32°C° 0 mm 10 m/S 755 mmHg 77%
    23:00 +32°C° 0 mm 10 m/S 755 mmHg 77%
    Mehr zeigen